Find Local Weather

World > North America > United States > California

La Jolla, California Regional Weather

Lat: 32.85N, Lon: 117.27W
Wx Zone: CAZ043
Feedback

La Jolla, CA Regional Weather

Expires:201903190300;;581835
ASUS46 KSGX 190211
RWRSGX

SAN DIEGO HOURLY WEATHER ROUNDUP
NATIONAL WEATHER SERVICE SAN DIEGO CA
700 PM PDT MON MAR 18 2019

NOTE: "FAIR" INDICATES FEW OR NO CLOUDS BELOW 12,000 FEET WITH NO 
SIGNIFICANT WEATHER AND/OR OBSTRUCTIONS TO VISIBILITY.


CAZ042-043-060-061-PZZ750-775-190300-

GREATER SAN DIEGO AREA
  
CITY           SKY/WX    TMP DP  RH WIND       PRES   REMARKS
SAN DIEGO AP   PTCLDY    62  55  77 S5        29.99R                  
NATIONAL CITY    N/A     62  56  81 CALM      29.97S                  
CHULA VISTA      N/A     63  56  80 W3        29.88S                  
IMPERIAL BEACH PTCLDY    59  54  83 W5        29.98R                  
BROWN FIELD    CLEAR     63  48  58 NW3       29.97R                  
MIRAMAR MCAS   CLEAR     66  51  58 SW5       29.96S                  
MONTGOMERY FLD CLEAR     64  48  56 S5        29.97R                  
GILLESPIE FLD  CLEAR     66  50  55 VRB6      29.97R                  

$$

NORTH SAN DIEGO COUNTY
  
CITY           SKY/WX    TMP DP  RH WIND       PRES   REMARKS
CAMP PENDLETON CLEAR     59  54  83 SW5       29.96R                  
OCEANSIDE AP   CLEAR     59  57  93 SW7       29.96R                  
OCEANSIDE HBR    N/A     58  56  91 CALM      29.99R                  
VISTA            N/A     66  52  60 CALM      29.93S                  
CARLSBAD       CLEAR     62  53  72 SW7       29.96R                  
DEL MAR          N/A     59  56  90 SW1       29.98S                  
LA JOLLA SCRIP   N/A     64  57  77 CALM      29.96S                  
FALLBROOK      FAIR      61  52  72 W3        29.97S                  
ESCONDIDO        N/A     68  47  47 SW1       29.96R                  
SAN MARCOS       N/A     66  53  62 CALM      30.00R                  
POWAY            N/A     67  52  58 CALM      29.98R                  

$$

EAST SAN DIEGO COUNTY
  
CITY           SKY/WX    TMP DP  RH WIND       PRES   REMARKS
RAMONA         CLEAR     60  51  72 NW3       29.98R                  
SANTEE LAKES     N/A     65  53  65 W5        29.91S                  
LA MESA          N/A     65  52  60 CALM      29.92S                  
JAMUL            N/A     62  48  59 CALM      29.97S                  
CAMPO            N/A     59  44  57 SW9       29.97R                  

$$

ORANGE COUNTY AND THE LOS ANGELES BASIN
  
CITY           SKY/WX    TMP DP  RH WIND       PRES   REMARKS
JOHN WAYNE AP  CLEAR     61  52  72 SW8       29.95R                  
LAGUNA BEACH     N/A     61  56  84 CALM      29.94S                  
LAKE FOREST FR   N/A     66  38  34 CALM      29.83R                  
HUNTINGTON BCH   N/A     58  55  89 SE5       29.97R                  
LOS ALAMITOS   FAIR      58  54  87 S3        29.95R                  
FULLERTON      CLEAR     64  46  52 S6        29.94R                  
LONG BEACH     CLEAR     60  54  80 S7        29.94S                  
L.A. AP        PTCLDY    63  51  65 SW5       29.94R                  
L.A. DOWNTOWN  CLEAR     69  47  45 CALM      29.93R                  

$$

THE INLAND EMPIRE
  
CITY           SKY/WX    TMP DP  RH WIND       PRES   REMARKS
CORONA         CLEAR     68  42  38 W10G18    29.93R                  
CHINO          PTCLDY    63  45  51 W9        29.94R                  
ONTARIO        PTCLDY    73  40  30 W8        29.94R                  
SAN BERNARDINO PTCLDY    73  37  27 SW12      29.94R                  
RIVERSIDE AP   CLEAR     70  42  36 NW6       29.94R                  
MORENO VALLEY    N/A     70  45  40 S2        28.05R                  
MARCH ARB      CLEAR     64  49  57 SE8       29.96R                  
HORSETHIEF CYN   N/A     74  38  27 CALM      29.92R                  
PERRIS           N/A     67  52  59 SE7       29.92R                  
HEMET EAST       N/A     69  35  28 CALM      29.89R                  
FRENCH VALLEY  FAIR      66  41  39 S3        29.97R                  
TEMECULA         N/A     69  46  43 SW3       29.94R                  

$$

SAN BERNARDINO AND RIVERSIDE COUNTY MOUNTAINS
  
CITY           SKY/WX    TMP DP  RH WIND       PRES   REMARKS
BIG BEAR AP    PTCLDY    46  32  57 CALM      30.12S                  

$$

SOUTHERN DESERT INCLUDING THE COACHELLA VALLEY
  
CITY           SKY/WX    TMP DP  RH WIND       PRES   REMARKS
PALM SPRINGS   CLOUDY    79  36  21 CALM      29.90R                  
THOUSAND PALMS   N/A     80  38  21 SE2       29.86R                  
PALM DESERT      N/A     82  38  20 CALM      29.77S                  
THERMAL        CLEAR     78  38  23 SE5       29.85S                  
BORREGO AP     FAIR      77  36  22 E3        29.89R                  
IMPERIAL AP    PTCLDY    84  38  19 SE8       29.86R                  
EL CENTRO NAS  PTCLDY    78  38  23 E9        29.87S                  
YUMA AZ        CLEAR     80  42  25 W5        29.87S                  
MEXICALI       CLEAR     82  37  20 SE3       29.88R                  

$$

UPPER DESERT
  
CITY           SKY/WX    TMP DP  RH WIND       PRES   REMARKS
VICTORVILLE AP CLEAR    N/A N/A N/A S9        29.99R                  
HESPERIA         N/A     67  38  34 W5        29.97R                  
APPLE VALLEY     N/A     68  36  30 N5        29.99R                  
PALMDALE       CLEAR     66  35  31 W12       29.98R                  
LANCASTER      CLEAR     67  40  37 W9        29.98R                  
EDWARDS AFB    PTCLDY    70  38  31 W6        29.95R                  
DAGGETT        MOCLDY    73  33  23 NE7       29.94R                  
29 PALMS N     CLEAR     69  32  25 S8        30.01S                  
NEEDLES        CLEAR     77  39  25 SE5       29.92R                  

$$

REGIONAL REPORTS
  
CITY           SKY/WX    TMP DP  RH WIND       PRES   REMARKS
SANTA BARBARA  CLEAR     59  54  83 W5        29.93S                  
SANDBERG       CLEAR     58  33  39 S7        30.06S                  
LAS VEGAS NV   PTCLDY    73  23  15 E9        29.96R                  
PHOENIX AZ     PTCLDY    78  34  20 SE3       29.90R                  
TIJUANA        CLEAR     64  52  63 N5        29.99S                  

$$

OFFSHORE ISLANDS
  
CITY           SKY/WX    TMP DP  RH WIND       PRES   REMARKS
CATALINA ARPT  CLEAR     63  40  42 W5        29.98S                  
SAN CLEMENTE I CLOUDY    54  32  43 MISG      29.97R                  
SAN NICOLAS IS CLEAR     59  36  42 W10       29.94S                  

$$

MARINE AND OFFSHORE BUOY REPORTS
  
STATION/POSITION SKY/WX   TEMP    WIND        PRES    VSBY  SWELL
                          AIR SEA DIR/SP/G                  HT/PER/DIR
                          (F)     (DEG/KT/KT) (MB)    (MI)  (FT/S/D)
TANNER BANKS               58 59              1014.0F
S CLEMENTE BASIN           59 62  310/  2/  2 1014.7R         5/280/14
SAN NICOLAS IS.               59                N/A           5/250/15
SO. S. ROSA ISLA           55 57  300/  8/ 10 1013.9S         5/280/14
W. S. BARBARA CH                              1013.6F         5/270/14
M. S. BARBARA CH           55 58  260/ 10/ 12 1014.2
S. MONICA BASIN            60 59  290/  6/  8 1013.4F         3/220/15
S PEDRO CHANNEL               59                N/A           3/260/14
CMP PENDLETON NS              60                N/A           2/220/15
OCEANSIDE OFFSHR              60                N/A           2/200/15
TORREY PINES OTR              60                N/A           3/230/15
SAN DIEGO BAY                                 1014.7R
IMPERIAL BEACH                59                N/A           2/240/15
POINT LOMA SOUTH              60                N/A           5/240/14

$$

  

SKY/WX - Weather  TMP - Temperature  DP - Dew Point  RH - Relative Humidity
WIND - Wind Direction/Speed PRES - Barometric Pressure VSB - Visibility
WCI - Wind Chill Index E13G22 Wind - East Wind 13 mph/Gusts of 22 mph